Time,TemperatureF,DewpointF,PressureIn,WindDirection,WindDirectionDegrees,WindSpeedMPH,WindSpeedGustMPH,Humidity,HourlyPrecipIn,Conditions,Clouds,dailyrainin,SolarRadiationWatts/m^2,SoftwareType,DateUTC
2013-01-23 00:05:00,59.8,22.9,30.01,WNW,283,0.0,0.0,24,0.00,,,0.00,0,Wunderground v.1.15,2013-01-23 08:05:00,
2013-01-23 00:14:00,59.9,22.0,30.01,WNW,283,0.0,0.0,23,0.00,,,0.00,0,Wunderground v.1.15,2013-01-23 08:14:00,
2013-01-23 00:20:00,60.1,21.1,30.00,WNW,283,0.0,0.0,22,0.00,,,0.00,0,Wunderground v.1.15,2013-01-23 08:20:00,
2013-01-23 00:25:00,60.4,20.2,30.00,WNW,283,0.0,0.0,21,0.00,,,0.00,0,Wunderground v.1.15,2013-01-23 08:25:00,
2013-01-23 00:30:00,60.8,20.6,30.00,WNW,283,0.0,0.0,21,0.00,,,0.00,0,Wunderground v.1.15,2013-01-23 08:30:00,
2013-01-23 00:40:00,61.2,22.0,30.00,WNW,283,0.0,0.0,22,0.00,,,0.00,0,Wunderground v.1.15,2013-01-23 08:40:00,
2013-01-23 00:45:00,61.1,23.0,30.00,WNW,283,0.0,0.0,23,0.00,,,0.00,0,Wunderground v.1.15,2013-01-23 08:45:00,
2013-01-23 00:54:00,60.4,22.4,30.00,WNW,283,0.0,0.0,23,0.00,,,0.00,0,Wunderground v.1.15,2013-01-23 08:54:00,
2013-01-23 01:00:00,60.1,22.1,30.00,WNW,283,0.0,0.0,23,0.00,,,0.00,0,Wunderground v.1.15,2013-01-23 09:00:00,
2013-01-23 01:05:00,59.9,22.0,30.00,WNW,283,0.0,0.0,23,0.00,,,0.00,0,Wunderground v.1.15,2013-01-23 09:05:00,
2013-01-23 01:15:00,59.5,21.6,30.00,WNW,283,0.0,0.0,23,0.00,,,0.00,0,Wunderground v.1.15,2013-01-23 09:15:00,
2013-01-23 01:24:00,59.8,20.8,30.00,WNW,283,0.0,0.0,22,0.00,,,0.00,0,Wunderground v.1.15,2013-01-23 09:24:00,
2013-01-23 01:30:00,59.9,22.0,30.00,WNW,283,0.0,0.0,23,0.00,,,0.00,0,Wunderground v.1.15,2013-01-23 09:30:00,
2013-01-23 01:35:00,60.0,19.9,30.00,WNW,283,0.0,0.0,21,0.00,,,0.00,0,Wunderground v.1.15,2013-01-23 09:35:00,
2013-01-23 01:45:00,60.3,22.3,30.00,WNW,283,0.0,0.0,23,0.00,,,0.00,0,Wunderground v.1.15,2013-01-23 09:45:00,
2013-01-23 01:54:00,60.3,21.2,30.00,WNW,283,0.0,0.0,22,0.00,,,0.00,0,Wunderground v.1.15,2013-01-23 09:54:00,
2013-01-23 02:00:00,60.4,21.3,30.00,WNW,283,0.0,0.0,22,0.00,,,0.00,0,Wunderground v.1.15,2013-01-23 10:00:00,
2013-01-23 02:05:00,60.5,21.4,30.00,WNW,283,0.0,0.0,22,0.00,,,0.00,0,Wunderground v.1.15,2013-01-23 10:05:00,
2013-01-23 02:15:00,60.5,23.5,30.00,WNW,283,0.0,0.0,24,0.00,,,0.00,0,Wunderground v.1.15,2013-01-23 10:15:00,
2013-01-23 02:24:00,59.3,23.4,30.00,WNW,283,0.0,0.0,25,0.00,,,0.00,0,Wunderground v.1.15,2013-01-23 10:24:00,
2013-01-23 02:30:00,59.1,22.3,30.00,WNW,283,0.0,0.0,24,0.00,,,0.00,0,Wunderground v.1.15,2013-01-23 10:30:00,
2013-01-23 02:39:00,58.8,23.0,30.00,WNW,283,0.0,0.0,25,0.00,,,0.00,0,Wunderground v.1.15,2013-01-23 10:39:00,
2013-01-23 02:45:00,58.6,22.8,30.00,WNW,283,0.0,0.0,25,0.00,,,0.00,0,Wunderground v.1.15,2013-01-23 10:45:00,
2013-01-23 02:55:00,58.3,22.6,30.00,WNW,283,0.0,0.0,25,0.00,,,0.00,0,Wunderground v.1.15,2013-01-23 10:55:00,
2013-01-23 03:05:00,58.1,21.4,30.00,WNW,283,0.0,0.0,24,0.00,,,0.00,0,Wunderground v.1.15,2013-01-23 11:05:00,
2013-01-23 03:15:00,58.8,22.0,30.00,WNW,283,0.0,0.0,24,0.00,,,0.00,0,Wunderground v.1.15,2013-01-23 11:15:00,
2013-01-23 03:25:00,59.1,22.3,29.99,WNW,283,0.0,0.0,24,0.00,,,0.00,0,Wunderground v.1.15,2013-01-23 11:25:00,
2013-01-23 03:40:00,59.6,22.7,29.99,WNW,284,2.0,2.0,24,0.00,,,0.00,0,Wunderground v.1.15,2013-01-23 11:40:00,
2013-01-23 03:45:00,59.9,23.0,29.99,WNW,284,0.0,2.0,24,0.00,,,0.00,0,Wunderground v.1.15,2013-01-23 11:45:00,
2013-01-23 03:54:00,60.1,23.1,29.99,WNW,284,0.0,0.0,24,0.00,,,0.00,0,Wunderground v.1.15,2013-01-23 11:54:00,
2013-01-23 04:00:00,60.2,23.2,29.99,WNW,284,0.0,0.0,24,0.00,,,0.00,0,Wunderground v.1.15,2013-01-23 12:00:00,
2013-01-23 04:05:00,60.1,23.1,29.99,WNW,284,0.0,0.0,24,0.00,,,0.00,0,Wunderground v.1.15,2013-01-23 12:05:00,
2013-01-23 04:15:00,60.0,23.1,29.98,WNW,284,0.0,0.0,24,0.00,,,0.00,0,Wunderground v.1.15,2013-01-23 12:15:00,
2013-01-23 04:25:00,60.0,23.1,29.98,WNW,284,0.0,0.0,24,0.00,,,0.00,0,Wunderground v.1.15,2013-01-23 12:25:00,
2013-01-23 04:35:00,60.2,23.2,29.98,WNW,284,0.0,0.0,24,0.00,,,0.00,0,Wunderground v.1.15,2013-01-23 12:35:00,
2013-01-23 04:45:00,60.4,23.4,29.98,WNW,284,0.0,0.0,24,0.00,,,0.00,0,Wunderground v.1.15,2013-01-23 12:45:00,
2013-01-23 04:50:00,60.4,23.4,29.98,WNW,284,0.0,0.0,24,0.00,,,0.00,0,Wunderground v.1.15,2013-01-23 12:50:00,
2013-01-23 04:59:00,60.3,22.3,29.98,WNW,284,0.0,0.0,23,0.00,,,0.00,0,Wunderground v.1.15,2013-01-23 12:59:00,
2013-01-23 05:05:00,60.3,22.3,29.98,WNW,284,0.0,0.0,23,0.00,,,0.00,0,Wunderground v.1.15,2013-01-23 13:05:00,
2013-01-23 05:14:00,60.3,22.3,29.98,WNW,284,0.0,0.0,23,0.00,,,0.00,0,Wunderground v.1.15,2013-01-23 13:14:00,
2013-01-23 05:20:00,60.4,22.4,29.98,WNW,284,0.0,0.0,23,0.00,,,0.00,0,Wunderground v.1.15,2013-01-23 13:20:00,
2013-01-23 05:25:00,60.6,21.5,29.98,WNW,284,0.0,0.0,22,0.00,,,0.00,0,Wunderground v.1.15,2013-01-23 13:25:00,
2013-01-23 05:35:00,61.3,21.0,29.98,WNW,284,0.0,0.0,21,0.00,,,0.00,0,Wunderground v.1.15,2013-01-23 13:35:00,
2013-01-23 05:44:00,62.0,21.6,29.99,WNW,284,0.0,0.0,21,0.00,,,0.00,0,Wunderground v.1.15,2013-01-23 13:44:00,
2013-01-23 05:50:00,62.3,21.8,29.99,WNW,284,0.0,0.0,21,0.00,,,0.00,0,Wunderground v.1.15,2013-01-23 13:50:00,
2013-01-23 05:55:00,62.6,22.1,29.99,WNW,284,0.0,0.0,21,0.00,,,0.00,0,Wunderground v.1.15,2013-01-23 13:55:00,
2013-01-23 06:05:00,62.6,23.2,29.99,WNW,284,0.0,0.0,22,0.00,,,0.00,0,Wunderground v.1.15,2013-01-23 14:05:00,
2013-01-23 06:14:00,62.3,22.9,29.99,WNW,284,0.0,0.0,22,0.00,,,0.00,0,Wunderground v.1.15,2013-01-23 14:14:00,
2013-01-23 06:20:00,62.1,22.8,29.99,WNW,284,0.0,0.0,22,0.00,,,0.00,0,Wunderground v.1.15,2013-01-23 14:20:00,
2013-01-23 06:30:00,61.7,21.3,30.00,WNW,284,0.0,0.0,21,0.00,,,0.00,0,Wunderground v.1.15,2013-01-23 14:30:00,
2013-01-23 06:40:00,61.6,21.2,30.00,WNW,284,0.0,0.0,21,0.00,,,0.00,0,Wunderground v.1.15,2013-01-23 14:40:00,
2013-01-23 06:50:00,61.5,23.3,30.00,WNW,284,0.0,0.0,23,0.00,,,0.00,0,Wunderground v.1.15,2013-01-23 14:50:00,
2013-01-23 06:55:00,61.4,22.2,30.00,WNW,284,0.0,0.0,22,0.00,,,0.00,0,Wunderground v.1.15,2013-01-23 14:55:00,
2013-01-23 07:05:00,61.6,21.2,30.00,WNW,284,0.0,0.0,21,0.00,,,0.00,0,Wunderground v.1.15,2013-01-23 15:05:00,
2013-01-23 07:10:00,61.7,21.3,30.00,WNW,284,0.0,0.0,21,0.00,,,0.00,0,Wunderground v.1.15,2013-01-23 15:10:00,
2013-01-23 07:19:00,62.0,21.6,30.00,WNW,284,0.0,0.0,21,0.00,,,0.00,0,Wunderground v.1.15,2013-01-23 15:19:00,
2013-01-23 07:25:00,62.3,21.8,30.00,WNW,284,0.0,0.0,21,0.00,,,0.00,0,Wunderground v.1.15,2013-01-23 15:25:00,
2013-01-23 07:34:00,62.7,22.2,30.01,WNW,284,0.0,0.0,21,0.00,,,0.00,0,Wunderground v.1.15,2013-01-23 15:34:00,
2013-01-23 07:40:00,62.9,22.3,30.00,WNW,284,0.0,0.0,21,0.00,,,0.00,0,Wunderground v.1.15,2013-01-23 15:40:00,
2013-01-23 07:50:00,63.2,22.6,30.00,WNW,284,0.0,0.0,21,0.00,,,0.00,0,Wunderground v.1.15,2013-01-23 15:50:00,
2013-01-23 08:00:00,63.9,23.2,30.00,WNW,284,0.0,0.0,21,0.00,,,0.00,0,Wunderground v.1.15,2013-01-23 16:00:00,
2013-01-23 08:05:00,64.2,23.4,30.00,WNW,284,0.0,0.0,21,0.00,,,0.00,0,Wunderground v.1.15,2013-01-23 16:05:00,
2013-01-23 08:14:00,64.7,26.0,30.01,WNW,284,0.0,0.0,23,0.00,,,0.00,0,Wunderground v.1.15,2013-01-23 16:14:00,
2013-01-23 08:20:00,64.9,27.2,30.01,WNW,284,0.0,0.0,24,0.00,,,0.00,0,Wunderground v.1.15,2013-01-23 16:20:00,
2013-01-23 08:30:00,65.5,28.7,30.01,WNW,284,0.0,0.0,25,0.00,,,0.00,0,Wunderground v.1.15,2013-01-23 16:30:00,
2013-01-23 08:39:00,66.1,31.1,30.01,WNW,284,0.0,0.0,27,0.00,,,0.00,0,Wunderground v.1.15,2013-01-23 16:39:00,
2013-01-23 08:45:00,66.6,31.5,30.01,WNW,284,0.0,0.0,27,0.00,,,0.00,0,Wunderground v.1.15,2013-01-23 16:45:00,
2013-01-23 08:54:00,67.3,33.1,30.01,WNW,284,0.0,0.0,28,0.00,,,0.00,0,Wunderground v.1.15,2013-01-23 16:54:00,
2013-01-23 09:00:00,67.8,35.2,30.01,WNW,284,0.0,0.0,30,0.00,,,0.00,0,Wunderground v.1.15,2013-01-23 17:00:00,
2013-01-23 09:05:00,68.3,34.8,30.01,WNW,284,0.0,0.0,29,0.00,,,0.00,0,Wunderground v.1.15,2013-01-23 17:05:00,
2013-01-23 09:14:00,69.3,35.7,30.02,WNW,284,0.0,0.0,29,0.00,,,0.00,0,Wunderground v.1.15,2013-01-23 17:14:00,
2013-01-23 09:20:00,69.7,37.7,30.02,WNW,284,0.0,0.0,31,0.00,,,0.00,0,Wunderground v.1.15,2013-01-23 17:20:00,
2013-01-23 09:30:00,70.2,38.1,30.02,WNW,284,0.0,0.0,31,0.00,,,0.00,0,Wunderground v.1.15,2013-01-23 17:30:00,
2013-01-23 09:39:00,70.5,36.7,30.02,WNW,284,0.0,0.0,29,0.00,,,0.00,0,Wunderground v.1.15,2013-01-23 17:39:00,
2013-01-23 09:44:00,70.6,38.5,30.02,WNW,284,0.0,0.0,31,0.00,,,0.00,0,Wunderground v.1.15,2013-01-23 17:44:00,
2013-01-23 09:50:00,70.7,38.6,30.02,WNW,284,0.0,0.0,31,0.00,,,0.00,0,Wunderground v.1.15,2013-01-23 17:50:00,
2013-01-23 10:00:00,70.9,37.9,30.02,WNW,284,0.0,0.0,30,0.00,,,0.00,0,Wunderground v.1.15,2013-01-23 18:00:00,
2013-01-23 10:05:00,71.2,38.2,30.02,WNW,284,0.0,0.0,30,0.00,,,0.00,0,Wunderground v.1.15,2013-01-23 18:05:00,
2013-01-23 10:14:00,71.9,38.8,30.02,WNW,284,0.0,0.0,30,0.00,,,0.00,0,Wunderground v.1.15,2013-01-23 18:14:00,
2013-01-23 10:20:00,72.3,40.0,30.02,WNW,284,0.0,0.0,31,0.00,,,0.00,0,Wunderground v.1.15,2013-01-23 18:20:00,
2013-01-23 10:25:00,72.6,40.2,30.02,WNW,284,0.0,0.0,31,0.00,,,0.00,0,Wunderground v.1.15,2013-01-23 18:25:00,
2013-01-23 10:34:00,73.4,37.4,30.03,WNW,284,0.0,0.0,27,0.00,,,0.00,0,Wunderground v.1.15,2013-01-23 18:34:00,
2013-01-23 10:39:00,74.0,37.9,30.03,WNW,284,0.0,0.0,27,0.00,,,0.00,0,Wunderground v.1.15,2013-01-23 18:39:00,
2013-01-23 10:45:00,74.5,37.3,30.02,WNW,284,0.0,0.0,26,0.00,,,0.00,0,Wunderground v.1.15,2013-01-23 18:45:00,
2013-01-23 10:50:00,75.1,35.8,30.02,WNW,284,2.0,2.0,24,0.00,,,0.00,0,Wunderground v.1.15,2013-01-23 18:50:00,
2013-01-23 10:59:00,75.7,37.4,30.02,WNW,282,0.0,0.0,25,0.00,,,0.00,0,Wunderground v.1.15,2013-01-23 18:59:00,
2013-01-23 11:05:00,75.9,36.5,30.02,WNW,284,0.0,0.0,24,0.00,,,0.00,0,Wunderground v.1.15,2013-01-23 19:05:00,
2013-01-23 11:10:00,76.0,36.6,30.02,WNW,284,0.0,0.0,24,0.00,,,0.00,0,Wunderground v.1.15,2013-01-23 19:10:00,
2013-01-23 11:19:00,75.8,36.4,30.02,West,279,0.0,0.0,24,0.00,,,0.00,0,Wunderground v.1.15,2013-01-23 19:19:00,
2013-01-23 11:25:00,75.6,36.2,30.02,West,279,0.0,0.0,24,0.00,,,0.00,0,Wunderground v.1.15,2013-01-23 19:25:00,
2013-01-23 11:30:00,75.4,35.0,30.02,West,279,0.0,0.0,23,0.00,,,0.00,0,Wunderground v.1.15,2013-01-23 19:30:00,
2013-01-23 11:40:00,74.8,35.6,30.02,West,278,0.0,0.0,24,0.00,,,0.00,0,Wunderground v.1.15,2013-01-23 19:40:00,
2013-01-23 11:50:00,74.4,35.2,30.02,West,271,1.0,1.0,24,0.00,,,0.00,0,Wunderground v.1.15,2013-01-23 19:50:00,
2013-01-23 11:55:00,74.2,35.1,30.02,SSW,196,0.0,1.0,24,0.00,,,0.00,0,Wunderground v.1.15,2013-01-23 19:55:00,
2013-01-23 12:00:00,74.0,34.9,30.02,SSW,195,0.0,0.0,24,0.00,,,0.00,0,Wunderground v.1.15,2013-01-23 20:00:00,
2013-01-23 12:05:00,73.8,34.7,30.02,SSW,195,0.0,0.0,24,0.00,,,0.00,0,Wunderground v.1.15,2013-01-23 20:05:00,
2013-01-23 12:15:00,73.1,35.2,30.01,SSW,196,0.0,1.0,25,0.00,,,0.00,0,Wunderground v.1.15,2013-01-23 20:15:00,
2013-01-23 12:20:00,72.6,34.7,30.01,SSE,162,0.0,0.0,25,0.00,,,0.00,0,Wunderground v.1.15,2013-01-23 20:20:00,
2013-01-23 12:25:00,72.5,36.6,30.00,South,177,0.0,0.0,27,0.00,,,0.00,0,Wunderground v.1.15,2013-01-23 20:25:00,
2013-01-23 12:34:00,72.3,34.5,30.00,SE,145,0.0,0.0,25,0.00,,,0.00,0,Wunderground v.1.15,2013-01-23 20:34:00,
2013-01-23 12:39:00,72.1,34.3,30.01,South,172,1.0,1.0,25,0.00,,,0.00,0,Wunderground v.1.15,2013-01-23 20:39:00,
2013-01-23 12:45:00,71.9,34.1,30.00,SE,133,0.0,1.0,25,0.00,,,0.00,0,Wunderground v.1.15,2013-01-23 20:45:00,
2013-01-23 12:50:00,71.7,34.0,30.00,South,182,0.0,0.0,25,0.00,,,0.00,0,Wunderground v.1.15,2013-01-23 20:50:00,
2013-01-23 12:59:00,71.4,34.7,30.00,South,181,0.0,0.0,26,0.00,,,0.00,0,Wunderground v.1.15,2013-01-23 20:59:00,
2013-01-23 13:05:00,71.6,34.9,30.00,South,171,0.0,0.0,26,0.00,,,0.00,0,Wunderground v.1.15,2013-01-23 21:05:00,
2013-01-23 13:15:00,71.6,33.9,30.00,SSE,164,0.0,1.0,25,0.00,,,0.00,0,Wunderground v.1.15,2013-01-23 21:15:00,
2013-01-23 13:25:00,71.5,34.8,30.00,SE,133,0.0,0.0,26,0.00,,,0.00,0,Wunderground v.1.15,2013-01-23 21:25:00,
2013-01-23 13:35:00,71.3,34.6,30.00,ESE,114,2.0,2.0,26,0.00,,,0.00,0,Wunderground v.1.15,2013-01-23 21:35:00,
2013-01-23 13:45:00,70.5,33.0,30.00,ESE,116,2.0,2.0,25,0.00,,,0.00,0,Wunderground v.1.15,2013-01-23 21:45:00,
2013-01-23 13:54:00,70.3,34.7,29.99,SE,144,2.0,2.0,27,0.00,,,0.00,0,Wunderground v.1.15,2013-01-23 21:54:00,
2013-01-23 14:00:00,70.2,34.6,29.99,SE,140,1.0,1.0,27,0.00,,,0.00,0,Wunderground v.1.15,2013-01-23 22:00:00,
2013-01-23 14:05:00,70.2,32.7,29.99,SE,130,0.0,1.0,25,0.00,,,0.00,0,Wunderground v.1.15,2013-01-23 22:05:00,
2013-01-23 14:14:00,69.9,33.4,29.99,SE,130,0.0,0.0,26,0.00,,,0.00,0,Wunderground v.1.15,2013-01-23 22:14:00,
2013-01-23 14:20:00,69.8,33.3,30.00,ENE,65,0.0,0.0,26,0.00,,,0.00,0,Wunderground v.1.15,2013-01-23 22:20:00,
2013-01-23 14:30:00,69.9,33.4,30.00,East,96,1.0,1.0,26,0.00,,,0.00,0,Wunderground v.1.15,2013-01-23 22:30:00,
2013-01-23 14:40:00,70.3,34.7,30.01,SE,133,0.0,0.0,27,0.00,,,0.00,0,Wunderground v.1.15,2013-01-23 22:40:00,
2013-01-23 14:49:00,70.3,34.7,30.01,SE,133,2.0,2.0,27,0.00,,,0.00,0,Wunderground v.1.15,2013-01-23 22:49:00,
2013-01-23 14:55:00,69.9,34.4,30.01,SSW,197,1.0,2.0,27,0.00,,,0.00,0,Wunderground v.1.15,2013-01-23 22:55:00,
2013-01-23 15:05:00,69.4,33.9,30.02,SE,128,0.0,0.0,27,0.00,,,0.00,0,Wunderground v.1.15,2013-01-23 23:05:00,
2013-01-23 15:15:00,68.8,33.4,30.01,SSE,152,0.0,2.0,27,0.00,,,0.00,0,Wunderground v.1.15,2013-01-23 23:15:00,
2013-01-23 15:25:00,68.1,32.8,30.01,SE,129,2.0,2.0,27,0.00,,,0.00,0,Wunderground v.1.15,2013-01-23 23:25:00,
2013-01-23 15:35:00,67.5,33.2,30.02,SE,146,0.0,1.0,28,0.00,,,0.00,0,Wunderground v.1.15,2013-01-23 23:35:00,
2013-01-23 15:40:00,67.3,33.9,30.02,SE,130,2.0,2.0,29,0.00,,,0.00,0,Wunderground v.1.15,2013-01-23 23:40:00,
2013-01-23 15:49:00,66.9,34.4,30.02,SSE,161,1.0,1.0,30,0.00,,,0.00,0,Wunderground v.1.15,2013-01-23 23:49:00,
2013-01-23 15:55:00,66.6,35.0,30.02,SE,134,1.0,1.0,31,0.00,,,0.00,0,Wunderground v.1.15,2013-01-23 23:55:00,
2013-01-23 16:05:00,66.2,35.4,30.02,ESE,102,2.0,2.0,32,0.00,,,0.00,0,Wunderground v.1.15,2013-01-24 00:05:00,
2013-01-23 16:14:00,65.9,35.2,30.01,ESE,118,0.0,4.0,32,0.00,,,0.00,0,Wunderground v.1.15,2013-01-24 00:14:00,
2013-01-23 16:20:00,65.8,35.9,30.02,ESE,120,0.0,0.0,33,0.00,,,0.00,0,Wunderground v.1.15,2013-01-24 00:20:00,
2013-01-23 16:30:00,65.4,35.5,30.01,SE,126,0.0,0.0,33,0.00,,,0.00,0,Wunderground v.1.15,2013-01-24 00:30:00,
2013-01-23 16:35:00,65.3,36.2,30.02,SE,128,2.0,2.0,34,0.00,,,0.00,0,Wunderground v.1.15,2013-01-24 00:35:00,
2013-01-23 16:44:00,65.1,36.0,30.02,ESE,107,0.0,0.0,34,0.00,,,0.00,0,Wunderground v.1.15,2013-01-24 00:44:00,
2013-01-23 16:50:00,65.0,35.9,30.02,SSW,199,0.0,0.0,34,0.00,,,0.00,0,Wunderground v.1.15,2013-01-24 00:50:00,
2013-01-23 17:00:00,64.8,35.8,30.02,South,170,0.0,0.0,34,0.00,,,0.00,0,Wunderground v.1.15,2013-01-24 01:00:00,
2013-01-23 17:05:00,64.6,35.6,30.03,South,170,1.0,1.0,34,0.00,,,0.00,0,Wunderground v.1.15,2013-01-24 01:05:00,
2013-01-23 17:15:00,64.4,36.1,30.03,SE,137,3.0,3.0,35,0.00,,,0.00,0,Wunderground v.1.15,2013-01-24 01:15:00,
2013-01-23 17:24:00,64.2,36.0,30.03,SE,136,2.0,2.0,35,0.00,,,0.00,0,Wunderground v.1.15,2013-01-24 01:24:00,
2013-01-23 17:30:00,64.2,36.0,30.04,SE,136,0.0,0.0,35,0.00,,,0.00,0,Wunderground v.1.15,2013-01-24 01:30:00,
2013-01-23 17:35:00,64.0,35.8,30.03,SE,136,0.0,0.0,35,0.00,,,0.00,0,Wunderground v.1.15,2013-01-24 01:35:00,
2013-01-23 17:45:00,63.7,36.2,30.04,SSE,150,0.0,0.0,36,0.00,,,0.00,0,Wunderground v.1.15,2013-01-24 01:45:00,
2013-01-23 17:54:00,63.6,36.8,30.03,SSE,150,0.0,0.0,37,0.00,,,0.00,0,Wunderground v.1.15,2013-01-24 01:54:00,
2013-01-23 18:00:00,63.6,36.8,30.04,SSE,150,0.0,0.0,37,0.00,,,0.00,0,Wunderground v.1.15,2013-01-24 02:00:00,
2013-01-23 18:05:00,63.5,36.7,30.04,SSE,150,0.0,0.0,37,0.00,,,0.00,0,Wunderground v.1.15,2013-01-24 02:05:00,
2013-01-23 18:15:00,63.2,36.5,30.05,SSE,150,0.0,0.0,37,0.00,,,0.00,0,Wunderground v.1.15,2013-01-24 02:15:00,
2013-01-23 18:24:00,63.0,37.0,30.03,SSE,150,0.0,0.0,38,0.00,,,0.00,0,Wunderground v.1.15,2013-01-24 02:24:00,
2013-01-23 18:30:00,62.9,36.9,30.05,SSE,150,0.0,0.0,38,0.00,,,0.00,0,Wunderground v.1.15,2013-01-24 02:30:00,
2013-01-23 18:35:00,62.8,36.1,30.05,SSE,160,0.0,0.0,37,0.00,,,0.00,0,Wunderground v.1.15,2013-01-24 02:35:00,
2013-01-23 18:44:00,62.9,36.9,30.05,SSW,197,1.0,1.0,38,0.00,,,0.00,0,Wunderground v.1.15,2013-01-24 02:44:00,
2013-01-23 18:50:00,62.8,38.1,30.06,SSW,194,3.0,3.0,40,0.00,,,0.00,0,Wunderground v.1.15,2013-01-24 02:50:00,
2013-01-23 19:00:00,62.3,39.5,30.05,SSW,200,4.0,4.0,43,0.00,,,0.00,0,Wunderground v.1.15,2013-01-24 03:00:00,
2013-01-23 19:05:00,62.1,39.9,30.05,South,189,0.0,4.0,44,0.00,,,0.00,0,Wunderground v.1.15,2013-01-24 03:05:00,
2013-01-23 19:14:00,61.9,39.7,30.04,South,189,0.0,0.0,44,0.00,,,0.00,0,Wunderground v.1.15,2013-01-24 03:14:00,
2013-01-23 19:20:00,61.8,40.2,30.05,South,189,2.0,2.0,45,0.00,,,0.00,0,Wunderground v.1.15,2013-01-24 03:20:00,
2013-01-23 19:30:00,61.5,41.1,30.05,NNE,14,0.0,0.0,47,0.00,,,0.00,0,Wunderground v.1.15,2013-01-24 03:30:00,
2013-01-23 19:40:00,61.4,40.4,30.04,NNE,20,0.0,0.0,46,0.00,,,0.00,0,Wunderground v.1.15,2013-01-24 03:40:00,
2013-01-23 19:49:00,61.4,39.9,30.04,SE,128,0.0,0.0,45,0.00,,,0.00,0,Wunderground v.1.15,2013-01-24 03:49:00,
2013-01-23 20:00:00,61.4,39.9,30.04,SE,128,0.0,0.0,45,0.00,,,0.00,0,Wunderground v.1.15,2013-01-24 04:00:00,
2013-01-23 20:05:00,61.3,39.8,30.04,SE,128,0.0,0.0,45,0.00,,,0.00,0,Wunderground v.1.15,2013-01-24 04:05:00,
2013-01-23 20:15:00,61.2,39.7,30.04,South,182,1.0,1.0,45,0.00,,,0.00,0,Wunderground v.1.15,2013-01-24 04:15:00,
2013-01-23 20:24:00,61.1,39.6,30.05,SE,137,2.0,2.0,45,0.00,,,0.00,0,Wunderground v.1.15,2013-01-24 04:24:00,
2013-01-23 20:29:00,61.0,39.5,30.05,SE,137,1.0,1.0,45,0.00,,,0.00,0,Wunderground v.1.15,2013-01-24 04:29:00,
2013-01-23 20:35:00,61.0,39.5,30.05,SE,137,0.0,1.0,45,0.00,,,0.00,0,Wunderground v.1.15,2013-01-24 04:35:00,
2013-01-23 20:44:00,61.1,39.6,30.05,SE,137,0.0,0.0,45,0.00,,,0.00,0,Wunderground v.1.15,2013-01-24 04:44:00,
2013-01-23 20:50:00,61.0,39.5,30.05,SE,137,0.0,0.0,45,0.00,,,0.00,0,Wunderground v.1.15,2013-01-24 04:50:00,
2013-01-23 21:00:00,60.8,39.3,30.05,SE,137,0.0,0.0,45,0.00,,,0.00,0,Wunderground v.1.15,2013-01-24 05:00:00,
2013-01-23 21:05:00,60.7,39.2,30.06,SE,137,0.0,0.0,45,0.00,,,0.00,0,Wunderground v.1.15,2013-01-24 05:05:00,
2013-01-23 21:10:00,60.6,39.1,30.06,SE,137,0.0,0.0,45,0.00,,,0.00,0,Wunderground v.1.15,2013-01-24 05:10:00,
2013-01-23 21:15:00,60.5,39.6,30.06,SE,137,0.0,0.0,46,0.00,,,0.00,0,Wunderground v.1.15,2013-01-24 05:15:00,
2013-01-23 21:20:00,60.4,39.5,30.05,SE,137,0.0,0.0,46,0.00,,,0.00,0,Wunderground v.1.15,2013-01-24 05:20:00,
2013-01-23 21:25:00,60.3,39.4,30.06,SE,137,0.0,0.0,46,0.00,,,0.00,0,Wunderground v.1.15,2013-01-24 05:25:00,
2013-01-23 21:30:00,60.3,39.4,30.06,SE,137,0.0,0.0,46,0.00,,,0.00,0,Wunderground v.1.15,2013-01-24 05:30:00,
2013-01-23 21:39:00,60.3,39.4,30.06,SSE,162,1.0,1.0,46,0.00,,,0.00,0,Wunderground v.1.15,2013-01-24 05:39:00,
2013-01-23 21:50:00,60.4,38.9,30.06,SSE,162,0.0,0.0,45,0.00,,,0.00,0,Wunderground v.1.15,2013-01-24 05:50:00,
2013-01-23 21:59:00,60.4,38.9,30.07,SSE,162,0.0,0.0,45,0.00,,,0.00,0,Wunderground v.1.15,2013-01-24 05:59:00,
2013-01-23 22:05:00,60.4,38.9,30.07,SSE,162,1.0,1.0,45,0.00,,,0.00,0,Wunderground v.1.15,2013-01-24 06:05:00,
2013-01-23 22:15:00,60.5,40.2,30.09,South,186,2.0,2.0,47,0.00,,,0.00,0,Wunderground v.1.15,2013-01-24 06:15:00,
2013-01-23 22:25:00,60.3,41.6,30.09,SSW,207,1.0,2.0,50,0.00,,,0.00,0,Wunderground v.1.15,2013-01-24 06:25:00,
2013-01-23 22:30:00,60.1,42.4,30.09,SSW,195,0.0,0.0,52,0.00,,,0.00,0,Wunderground v.1.15,2013-01-24 06:30:00,
2013-01-23 22:39:00,59.8,43.1,30.09,SSW,197,2.0,2.0,54,0.00,,,0.00,0,Wunderground v.1.15,2013-01-24 06:39:00,
2013-01-23 22:44:00,59.7,43.0,30.09,SSW,197,0.0,2.0,54,0.00,,,0.00,0,Wunderground v.1.15,2013-01-24 06:44:00,
2013-01-23 22:50:00,59.6,43.4,30.09,SSW,197,1.0,1.0,55,0.00,,,0.00,0,Wunderground v.1.15,2013-01-24 06:50:00,
2013-01-23 23:00:00,59.4,43.7,30.09,SSW,197,0.0,0.0,56,0.00,,,0.00,0,Wunderground v.1.15,2013-01-24 07:00:00,
2013-01-23 23:05:00,59.2,44.0,30.09,SSW,197,0.0,0.0,57,0.00,,,0.00,0,Wunderground v.1.15,2013-01-24 07:05:00,
2013-01-23 23:15:00,59.0,44.2,30.10,SSW,197,0.0,0.0,58,0.00,,,0.00,0,Wunderground v.1.15,2013-01-24 07:15:00,
2013-01-23 23:24:00,58.8,44.5,30.10,South,180,1.0,1.0,59,0.00,,,0.00,0,Wunderground v.1.15,2013-01-24 07:24:00,
2013-01-23 23:30:00,58.7,44.8,30.10,South,179,0.0,0.0,60,0.00,,,0.00,0,Wunderground v.1.15,2013-01-24 07:30:00,
2013-01-23 23:35:00,58.6,44.8,30.10,South,179,0.0,0.0,60,0.00,,,0.00,0,Wunderground v.1.15,2013-01-24 07:35:00,
2013-01-23 23:44:00,58.5,44.7,30.10,South,179,0.0,0.0,60,0.00,,,0.00,0,Wunderground v.1.15,2013-01-24 07:44:00,
2013-01-23 23:49:00,58.5,45.1,30.10,South,179,0.0,0.0,61,0.00,,,0.00,0,Wunderground v.1.15,2013-01-24 07:49:00,